Regional Weather Roundup
Issued by NWS Northern Indiana

Home | Current Version | Previous Version | Graphics & Text | Print | Product List | Glossary On
Versions: 1 2 3 4 5 6 7 8 9 10 11 12 13 14 15 16 17 18 19 20 21 22 23 24 25 26 27 28 29 30 31 32 33 34 35 36 37 38 39 40 41 42 43 44 45 46 47 48 49 50
000
ASUS43 KIWX 020000
RWRIWX

KIWX WEATHER ROUNDUP
NATIONAL WEATHER SERVICE NORTHERN INDIANA
800 PM EDT WED OCT 01 2014

NOTE: "FAIR" INDICATES FEW OR NO CLOUDS BELOW 12,000 FEET WITH NO
SIGNIFICANT WEATHER AND/OR OBSTRUCTIONS TO VISIBILITY.

* THESE STATIONS ARE NOT UNDER NWS QUALITY CONTROL. THEY ALSO MAY NOT
  REPORT WEATHER SUCH AS PRECIPITATION OR FOG.

INZ001>027-020100-
NORTHERN INDIANA

CITY           SKY/WX    TMP DP  RH WIND       PRES   REMARKS
GARY*          MOCLDY    66  54  63 SE5       29.92R
SOUTH BEND     NOT AVBL
ELKHART*       CLEAR     61  48  63 E7        29.97S
WARSAW*        CLEAR     59  50  72 E5        29.98R
ANGOLA*        CLEAR     57  48  72 SE3       30.00R
FORT WAYNE     PTCLDY    59  50  72 SE5       30.00R
6HR MIN TEMP:  58; 6HR MAX TEMP:  67;

PERU/GRISSOM   CLEAR     63  54  72 E5        29.96R
6HR MIN TEMP:  63; 6HR MAX TEMP:  71;


$$
INZ028>050-020100-
CENTRAL INDIANA

CITY           SKY/WX    TMP DP  RH WIND       PRES   REMARKS
LAFAYETTE      PTCLDY    65  57  75 E9        29.91F
6HR MIN TEMP:  65; 6HR MAX TEMP:  75;

KOKOMO*        CLEAR     63  48  59 SE7       29.97S
6HR MIN TEMP:  63; 6HR MAX TEMP:  72;

MUNCIE*        CLEAR     62  49  62 SE3       29.98R
6HR MIN TEMP:  61; 6HR MAX TEMP:  71;

INDIANAPOLIS   PTCLDY    71  57  61 SE5       29.95R
6HR MIN TEMP:  70; 6HR MAX TEMP:  76;


$$
MIZ043>046-050>051-056>058-064>065-071>073-077>080-020100-
SOUTHWEST LOWER MICHIGAN

CITY           SKY/WX    TMP DP  RH WIND       PRES   REMARKS
BATTLE CREEK   CLEAR     61  48  62 SE3       29.99S
6HR MIN TEMP:  61; 6HR MAX TEMP:  66;

BENTON HARBOR  PTCLDY    60  51  72 SE8       29.95R
6HR MIN TEMP:  60; 6HR MAX TEMP:  68;

COLDWATER*     CLEAR     58  50  73 CALM      30.00R
6HR MIN TEMP:  58; 6HR MAX TEMP:  67;

HILLSDALE*     CLEAR     56  51  82 CALM      30.01R
HOLLAND        PTCLDY    59  52  77 E7        29.97S
6HR MIN TEMP:  59; 6HR MAX TEMP:  66;

GRAND RAPIDS   MOCLDY    58  52  80 CALM      29.98S
6HR MIN TEMP:  58; 6HR MAX TEMP:  65;

STURGIS*       CLEAR     61  48  63 SE5       29.98S
THREE RIVERS*  FAIR      62  51  67 SE3       29.98S
6HR MIN TEMP:  61; 6HR MAX TEMP:  67;


$$
OHZ001>008-015>018-024>025-020100-
NORTHWEST OHIO

CITY           SKY/WX    TMP DP  RH WIND       PRES   REMARKS
DEFIANCE       CLEAR     57  51  80 CALM      30.00S
6HR MIN TEMP:  56; 6HR MAX TEMP:  68;

FINDLAY        CLEAR     61  50  67 SE3       30.00S
6HR MIN TEMP:  61; 6HR MAX TEMP:  70;

TOLEDO EXPRESS CLEAR     57  54  89 E3        30.01S
6HR MIN TEMP:  57; 6HR MAX TEMP:  69;

TOLEDO METCALF CLEAR     60  54  80 E6        30.03R
6HR MIN TEMP:  60; 6HR MAX TEMP:  69;

LIMA           CLEAR     56  50  80 E6        30.00S
6HR MIN TEMP:  56; 6HR MAX TEMP:  71;


$$
AND FOR LAKE MICHIGAN COASTAL AND OPEN LAKE BUOY OBSERVATIONS

STATION/POSITION TEMP    WIND        PRES    VSBY  WAVE
                 AIR SEA DIR/SP/G                  HT/PER
                 (F)     (DEG/KT/KT) (MB)    (MI)  (FT/S)
CALUMET HARBOR    68     130/  6/  9 1011.9R
MICHIGAN CITY     66     110/  9/ 13   N/A
SAINT JOSEPH      65      CALM  /  6 1013.9F
SOUTH LAKE BUOY   61 61  100/ 12/ 14 1013.3F         2/ 3

$$
&&



USA.gov is the U.S. government's official web portal to all federal, state and local government web resources and services.